CUBESAT XI-V (CO-58)

Last updated on Sun Nov 18 2018 00:08:35 GMT+0000 (Coordinated Universal Time)

1 28895U 05043F 18321.34944525 .00000150 00000-0 37696-4 0 9996 2 28895 97.9298 106.8044 0015710 308.1760 51.8027 14.63602534696042
UTC large
Height (km)
Speed (km/s)
/
Latitude / Longitude
Inclination (degrees)
Orbital Period (minutes)
Azimuth
Elevation
Range (km)
Doppler Factor

Next 0 passes for location: London (51.5072 / 0.1276)

Sorry there are no passes over London.